1503997201.2,16483,19.75,74320.3,22.03,-25.49,-26.71,0,*4E
1503997202.48,16484,19.75,74316.5,22.03,-24.87,-26.17,0,*4A
1503997203.72,16485,19.75,74318.5,22.03,-26.03,-27.13,0,*40
1503997204.95,16486,19.75,74318.0,22.05,-25.71,-27.03,0,*42
1503997206.19,16487,19.75,74320.0,22.03,-27.29,-28.69,0,*49
1503997207.47,16488,19.75,74318.3,21.99,-25.75,-26.93,0,*46
1503997208.73,16489,19.75,74316.8,21.99,-24.57,-25.55,0,*4F
1503997209.98,16490,19.75,74316.5,21.99,-27.19,-28.53,0,*45
1503997211.2,16491,19.75,74318.8,21.99,-26.87,-27.93,0,*41
1503997212.43,16492,19.75,74318.8,21.99,-25.39,-26.65,0,*4C
1503997213.69,16493,19.75,74318.0,21.97,-25.81,-26.97,0,*4D
1503997214.91,16494,19.75,74314.5,21.97,-25.45,-26.61,0,*4B
1503997216.18,16495,19.75,74318.0,21.95,-25.45,-26.77,0,*4F
1503997217.41,16496,19.75,74318.3,21.97,-25.91,-27.23,0,*47
1503997218.63,16497,19.75,74316.5,21.97,-28.69,-30.05,0,*4E
1503997219.88,16498,19.75,74314.8,21.95,-27.03,-28.47,0,*4F
1503997221.12,16499,19.75,74318.5,21.93,-27.29,-28.63,0,*46
1503997222.35,16500,19.75,74318.3,21.93,-27.77,-29.17,0,*4E
1503997223.63,16501,19.81,74322.0,21.91,-28.05,-29.39,0,*4B
1503997224.89,16502,19.75,74318.0,21.87,-28.09,-29.51,0,*4D
1503997226.15,16503,19.75,74322.0,21.87,-29.01,-30.55,0,*49
1503997227.39,16504,19.75,74316.5,21.85,-27.77,-29.13,0,*49
1503997228.61,16505,19.75,74316.8,21.83,-30.23,-31.57,0,*40
1503997229.81,16506,19.75,74318.8,21.79,-27.89,-29.23,0,*4A
1503997231.05,16507,19.75,74318.8,21.79,-29.83,-31.57,0,*45
1503997232.31,16508,19.75,74318.0,21.73,-31.11,-32.51,0,*47
1503997233.57,16509,19.75,74320.5,21.69,-30.67,-32.07,0,*4E
1503997234.86,16510,19.75,74320.5,21.65,-31.11,-32.75,0,*4F
1503997236.12,16511,19.75,74316.3,21.61,-29.83,-31.39,0,*43
1503997237.33,16512,19.81,74322.3,21.59,-29.83,-31.33,0,*41
1503997238.61,16513,19.75,74318.5,21.59,-29.51,-31.23,0,*4E
1503997239.86,16514,19.75,74320.3,21.57,-27.93,-29.29,0,*44
1503997241.12,16515,19.75,74318.5,21.57,-26.61,-27.99,0,*4C
1503997242.38,16516,19.75,74318.0,21.57,-24.83,-25.91,0,*4B
1503997243.65,16517,19.75,74320.3,21.57,-24.25,-25.35,0,*48
1503997244.85,16518,19.75,74316.0,21.59,-24.93,-26.07,0,*46
1503997246.11,16519,19.75,74318.8,21.61,-27.61,-28.97,0,*45
1503997247.36,16520,19.75,74316.3,21.61,-26.55,-27.77,0,*48
1503997248.62,16521,19.81,74318.5,21.57,-26.23,-27.61,0,*4A
1503997249.87,16522,19.75,74318.8,21.61,-25.91,-27.23,0,*40
1503997251.1,16523,19.75,74316.3,21.61,-25.39,-26.61,0,*44
1503997252.34,16524,19.75,74316.8,21.63,-24.67,-25.87,0,*40
1503997253.6,16525,19.75,74316.0,21.61,-24.21,-25.19,0,*46
1503997254.84,16526,19.75,74314.3,21.63,-24.21,-25.39,0,*45
1503997256.07,16527,19.75,74316.3,21.67,-25.29,-26.61,0,*47
1503997257.28,16528,19.75,74314.8,21.67,-26.07,-27.29,0,*4A
1503997258.51,16529,19.75,74316.0,21.67,-25.61,-26.81,0,*4B
1503997259.77,16530,19.75,74316.3,21.65,-26.13,-27.29,0,*44
1503997260.99,16531,19.75,74316.0,21.67,-26.23,-27.45,0,*4E
1503997262.21,16532,19.81,74316.3,21.65,-27.55,-28.97,0,*4F
1503997263.46,16533,19.75,74316.3,21.65,-25.23,-26.55,0,*4D
1503997264.69,16534,19.75,74316.3,21.67,-24.67,-25.91,0,*42
1503997265.9,16535,19.75,74318.0,21.67,-27.07,-28.31,0,*41
1503997267.13,16536,19.81,74320.3,21.67,-26.61,-27.83,0,*45
1503997268.38,16537,19.81,74320.3,21.65,-26.17,-27.51,0,*48
1503997269.58,16538,19.75,74316.3,21.67,-26.23,-27.51,0,*42
1503997270.86,16539,19.81,74322.3,21.65,-24.83,-25.81,0,*46
1503997272.09,16540,19.75,74318.8,21.67,-25.65,-26.93,0,*43
1503997273.35,16541,19.75,74316.8,21.69,-25.13,-26.29,0,*4C
1503997274.6,16542,19.81,74320.0,21.69,-25.39,-26.71,0,*4A
1503997275.84,16543,19.81,74322.5,21.69,-25.61,-27.03,0,*42
1503997277.12,16544,19.75,74316.3,21.69,-24.41,-25.45,0,*46
1503997278.38,16545,19.81,74320.5,21.69,-25.09,-26.17,0,*4E
1503997279.62,16546,19.75,74316.5,21.71,-24.25,-25.39,0,*44
1503997280.84,16547,19.75,74316.0,21.71,-24.35,-25.49,0,*43
1503997282.09,16548,19.75,74318.5,21.71,-24.51,-25.55,0,*43
1503997283.35,16549,19.81,74318.8,21.71,-23.85,-24.87,0,*42
1503997284.54,16550,19.75,74316.8,21.75,-25.91,-27.13,0,*43
1503997285.77,16551,19.75,74316.0,21.73,-25.09,-26.23,0,*47
1503997286.98,16552,19.81,74320.3,21.75,-24.51,-25.61,0,*4B
1503997288.2,16553,19.81,74320.0,21.75,-23.69,-24.77,0,*40
1503997289.49,16554,19.81,74320.3,21.81,-22.77,-23.85,0,*48
1503997290.76,16555,19.81,74322.5,21.81,-23.29,-24.25,0,*4E
1503997292.01,16556,19.81,74316.5,21.85,-22.41,-23.53,0,*40
1503997293.26,16557,19.81,74320.0,21.85,-23.23,-24.51,0,*41
1503997294.51,16558,19.81,74318.8,21.87,-23.03,-24.15,0,*4E
1503997295.71,16559,19.81,74316.5,21.89,-22.67,-23.79,0,*4F
1503997296.95,16560,19.75,74318.0,21.93,-23.13,-24.21,0,*46
1503997298.17,16561,19.75,74318.0,21.93,-22.67,-23.69,0,*4E
1503997299.43,16562,19.75,74318.3,21.95,-22.93,-23.99,0,*4F
1503997300.67,16563,19.81,74318.5,21.97,-23.03,-24.15,0,*47
1503997301.93,16564,19.81,74316.8,21.99,-22.93,-23.95,0,*49
1503997303.18,16565,19.75,74318.0,22.05,-22.77,-23.69,0,*47
1503997304.41,16566,19.81,74320.3,22.05,-23.75,-24.83,0,*44
1503997305.63,16567,19.75,74316.0,22.05,-23.89,-24.83,0,*46
1503997306.88,16568,19.75,74316.0,22.05,-23.69,-24.71,0,*4A
1503997308.13,16569,19.81,74320.0,22.07,-24.93,-26.29,0,*44
1503997309.36,16570,19.81,74320.8,22.05,-24.31,-25.45,0,*4F
1503997310.62,16571,19.81,74316.5,22.07,-26.77,-28.31,0,*42
1503997311.85,16572,19.81,74316.5,22.05,-25.97,-27.13,0,*41
1503997313.05,16573,19.81,74316.3,22.05,-27.03,-28.37,0,*46
1503997314.34,16574,19.81,74316.3,21.99,-26.93,-28.21,0,*48
1503997315.6,16575,19.75,74318.8,22.03,-26.03,-27.35,0,*4A
1503997316.86,16576,19.81,74316.5,21.99,-26.33,-27.51,0,*48
1503997318.07,16577,19.81,74318.5,21.97,-26.65,-27.93,0,*4A
1503997319.3,16578,19.81,74316.3,21.95,-27.03,-28.31,0,*41
1503997320.59,16579,19.81,74316.8,21.95,-26.77,-27.99,0,*4F
1503997321.85,16580,19.75,74316.3,21.95,-25.65,-26.81,0,*41
1503997323.08,16581,19.81,74318.0,21.93,-26.17,-27.51,0,*4C
1503997324.32,16582,19.81,74322.3,21.93,-28.21,-29.57,0,*4C
1503997325.55,16583,19.81,74322.5,21.89,-28.43,-29.95,0,*4C
1503997326.76,16584,19.81,74320.3,21.87,-28.37,-29.57,0,*48
1503997328.01,16585,19.81,74320.5,21.87,-25.03,-26.17,0,*48
1503997329.23,16586,19.81,74318.5,21.87,-24.51,-25.49,0,*45
1503997330.45,16587,19.81,74318.8,21.89,-24.93,-26.13,0,*48
1503997331.72,16588,19.81,74318.0,21.91,-24.71,-25.65,0,*40
1503997332.98,16589,19.81,74318.3,21.91,-24.21,-25.35,0,*41
1503997334.22,16590,19.81,74316.3,21.93,-24.31,-25.45,0,*4D
1503997335.48,16591,19.81,74320.8,21.93,-25.03,-26.33,0,*4E
1503997336.74,16592,19.81,74318.3,21.93,-26.17,-27.35,0,*4C
1503997337.95,16593,19.81,74318.3,21.93,-24.31,-25.19,0,*47
1503997339.21,16594,19.81,74318.0,21.93,-24.67,-25.75,0,*49
1503997340.44,16595,19.81,74316.5,21.93,-23.99,-24.97,0,*43
1503997341.7,16596,19.75,74314.3,21.97,-24.41,-25.45,0,*48
1503997342.95,16597,19.81,74320.3,21.97,-23.19,-24.25,0,*44
1503997344.2,16598,19.81,74318.3,21.99,-24.93,-26.17,0,*43
1503997345.44,16599,19.81,74316.0,21.99,-24.51,-25.65,0,*4A
1503997346.7,16600,19.81,74316.5,21.99,-25.87,-27.23,0,*43
1503997347.93,16601,19.81,74320.3,21.99,-27.67,-28.85,0,*4D
1503997349.16,16602,19.75,74316.5,21.97,-25.81,-27.07,0,*4F
1503997350.41,16603,19.81,74320.0,21.97,-24.83,-25.81,0,*41
1503997351.64,16604,19.81,74322.5,21.97,-25.61,-26.81,0,*48
1503997352.85,16605,19.75,74318.0,21.97,-24.31,-25.39,0,*4D
1503997354.07,16606,19.81,74320.3,21.97,-24.93,-26.13,0,*4D
1503997355.32,16607,19.81,74318.3,21.99,-27.93,-29.13,0,*4E
1503997356.58,16608,19.81,74316.3,21.95,-28.37,-29.73,0,*4A
1503997357.83,16609,19.81,74318.0,21.95,-28.47,-29.83,0,*43
1503997359.09,16610,19.81,74316.8,21.91,-27.71,-28.91,0,*47
1503997360.33,16611,19.81,74320.0,21.91,-26.39,-27.67,0,*4D
1503997361.59,16612,19.81,74320.8,21.91,-28.21,-29.57,0,*44
1503997362.82,16613,19.81,74318.0,21.89,-27.07,-28.43,0,*43
1503997364.07,16614,19.75,74316.5,21.89,-25.29,-26.33,0,*43
1503997365.31,16615,19.81,74316.5,21.91,-26.49,-27.67,0,*4E
1503997366.54,16616,19.81,74318.5,21.87,-25.97,-27.03,0,*48
1503997367.78,16617,19.81,74316.5,21.87,-27.67,-29.01,0,*48
1503997369.02,16618,19.81,74318.3,21.85,-27.93,-29.17,0,*49
1503997370.23,16619,19.81,74318.3,21.83,-26.49,-27.71,0,*46
1503997371.51,16620,19.81,74318.0,21.85,-26.17,-27.45,0,*46
1503997372.73,16621,19.81,74316.8,21.85,-27.77,-28.97,0,*40
1503997373.96,16622,19.81,74318.5,21.83,-26.55,-27.71,0,*43
1503997375.19,16623,19.81,74316.3,21.83,-27.51,-28.91,0,*46
1503997376.41,16624,19.75,74318.3,21.81,-27.89,-29.23,0,*4E
1503997377.69,16625,19.81,74320.0,21.81,-24.87,-25.97,0,*41
1503997378.94,16626,19.81,74316.5,21.81,-23.89,-25.03,0,*46
1503997380.23,16627,19.81,74320.0,21.81,-24.41,-25.71,0,*41
1503997381.46,16628,19.81,74316.0,21.83,-27.07,-28.43,0,*41
1503997382.68,16629,19.81,74316.0,21.83,-27.89,-29.29,0,*4B
1503997383.89,16630,19.81,74318.5,21.79,-29.67,-31.05,0,*4F
1503997385.16,16631,19.81,74316.5,21.79,-27.45,-28.63,0,*48
1503997386.38,16632,19.81,74318.3,21.75,-26.45,-27.61,0,*4B
1503997387.63,16633,19.81,74316.0,21.75,-25.81,-26.97,0,*49
1503997388.9,16634,19.81,74316.0,21.75,-26.97,-28.25,0,*4D
1503997390.14,16635,19.81,74316.3,21.75,-25.81,-26.93,0,*4B
1503997391.37,16636,19.81,74318.3,21.75,-24.97,-26.33,0,*44
1503997392.59,16637,19.81,74316.8,21.75,-24.93,-25.97,0,*4C
1503997393.83,16638,19.81,74318.5,21.75,-24.51,-25.75,0,*41
1503997395.12,16639,19.81,74318.3,21.81,-24.71,-25.97,0,*45
1503997396.37,16640,19.81,74312.5,21.81,-24.93,-26.13,0,*48
1503997397.62,16641,19.81,74318.8,21.81,-25.39,-26.55,0,*4A
1503997398.84,16642,19.81,74320.3,21.81,-27.67,-29.07,0,*48
1503997400.11,16643,19.81,74316.0,21.81,-28.05,-29.13,0,*47
1503997401.31,16644,19.81,74316.3,21.75,-27.13,-28.37,0,*44
1503997402.52,16645,19.81,74318.3,21.75,-25.61,-27.07,0,*4E
1503997403.77,16646,19.81,74322.5,21.75,-25.81,-26.97,0,*4B
1503997404.98,16647,19.81,74320.0,21.75,-27.07,-28.31,0,*44
1503997406.18,16648,19.81,74322.8,21.75,-25.91,-27.13,0,*49
1503997407.38,16649,19.81,74316.5,21.75,-26.07,-27.29,0,*4D
1503997408.61,16650,19.81,74320.0,21.73,-28.69,-30.11,0,*48
1503997409.84,16651,19.81,74320.8,21.73,-27.03,-28.31,0,*41
1503997411.09,16652,19.81,74322.3,21.73,-27.51,-28.91,0,*4F
1503997412.35,16653,19.81,74322.3,21.69,-29.23,-30.51,0,*4B
1503997413.61,16654,19.81,74320.3,21.69,-27.07,-28.09,0,*40
1503997414.82,16655,19.81,74322.8,21.71,-25.19,-26.39,0,*48
1503997416.1,16656,19.81,74318.5,21.69,-26.29,-27.39,0,*43
1503997417.37,16657,19.81,74322.5,21.69,-25.45,-26.71,0,*46
1503997418.57,16658,19.81,74320.5,21.71,-25.19,-26.49,0,*42
1503997419.82,16659,19.81,74322.3,21.69,-24.31,-25.61,0,*48
1503997421.05,16660,19.81,74320.0,21.71,-23.59,-24.67,0,*45
1503997422.28,16661,19.81,74322.8,21.75,-23.53,-24.61,0,*4C
1503997423.51,16662,19.81,74320.8,21.81,-23.43,-24.51,0,*46
1503997424.75,16663,19.81,74322.5,21.79,-24.87,-26.03,0,*4A
1503997425.99,16664,19.81,74320.5,21.79,-23.99,-25.09,0,*4C
1503997427.24,16665,19.81,74320.0,21.81,-24.21,-25.19,0,*4F
1503997428.5,16666,19.81,74322.3,21.81,-24.57,-25.71,0,*43
1503997429.76,16667,19.81,74316.8,21.85,-25.61,-26.81,0,*4E
1503997431.02,16668,19.81,74316.5,21.85,-24.67,-25.49,0,*41
1503997432.28,16669,19.81,74316.8,21.85,-23.53,-24.77,0,*4C
1503997433.55,16670,19.81,74320.0,21.85,-23.65,-24.67,0,*40
1503997434.77,16671,19.81,74320.0,21.89,-22.87,-23.95,0,*4A
1503997436.02,16672,19.81,74320.5,21.89,-23.03,-24.11,0,*4F
1503997437.27,16673,19.81,74318.8,21.91,-23.29,-24.35,0,*49
1503997438.52,16674,19.81,74316.0,21.93,-24.15,-25.29,0,*48
1503997439.78,16675,19.81,74322.5,21.95,-25.13,-26.33,0,*40
1503997441.01,16676,19.81,74322.3,21.95,-25.87,-27.13,0,*4D
1503997442.22,16677,19.81,74318.8,21.93,-25.87,-27.03,0,*4B
1503997443.45,16678,19.81,74320.8,21.93,-25.29,-26.49,0,*4F
1503997444.71,16679,19.81,74322.8,21.91,-27.03,-28.25,0,*42
1503997445.99,16680,19.81,74320.0,21.91,-26.93,-28.09,0,*42
1503997447.23,16681,19.81,74320.5,21.89,-24.61,-25.55,0,*41
1503997448.48,16682,19.81,74316.8,21.91,-25.65,-26.81,0,*44
1503997449.74,16683,19.81,74316.3,21.91,-26.55,-27.89,0,*4C
1503997450.96,16684,19.81,74318.0,21.89,-27.13,-28.43,0,*48
1503997452.19,16685,19.81,74318.5,21.89,-26.07,-27.23,0,*44
1503997453.42,16686,19.81,74318.5,21.87,-25.97,-27.13,0,*40
1503997454.65,16687,19.81,74320.0,21.89,-24.97,-26.13,0,*4F
1503997455.91,16688,19.81,74318.5,21.89,-26.97,-28.43,0,*49
1503997457.15,16689,19.81,74322.5,21.87,-27.83,-29.13,0,*46
1503997458.41,16690,19.81,74322.3,21.85,-28.15,-29.51,0,*4A
1503997459.61,16691,19.81,74316.0,21.83,-27.51,-28.85,0,*4A
1503997460.84,16692,19.81,74322.0,21.81,-26.87,-28.15,0,*48
1503997462.1,16693,19.81,74318.5,21.81,-26.03,-27.19,0,*46
1503997463.36,16694,19.81,74322.5,21.81,-26.33,-27.93,0,*40
1503997464.61,16695,19.81,74320.8,21.81,-26.49,-27.83,0,*4D
1503997465.87,16696,19.81,74316.5,21.79,-26.13,-27.39,0,*47
1503997467.12,16697,19.81,74320.3,21.79,-27.23,-28.43,0,*46
1503997468.37,16698,19.81,74320.8,21.79,-25.45,-26.55,0,*42
1503997469.61,16699,19.81,74320.0,21.79,-23.99,-25.13,0,*45
1503997470.82,16700,19.81,74320.8,21.79,-23.89,-25.09,0,*4E
1503997472.1,16701,19.81,74322.3,21.81,-23.23,-24.25,0,*47
1503997473.32,16702,19.81,74320.8,21.83,-25.03,-26.23,0,*46
1503997474.6,16703,19.81,74316.8,21.85,-23.99,-24.87,0,*48
1503997475.85,16704,19.81,74320.8,21.85,-24.51,-25.49,0,*4F
1503997477.08,16705,19.81,74318.8,21.87,-23.65,-24.61,0,*47
1503997478.31,16706,19.81,74316.5,21.89,-23.19,-24.31,0,*44
1503997479.57,16707,19.81,74318.8,21.89,-24.41,-25.55,0,*4C
1503997480.81,16708,19.81,74316.8,21.93,-24.05,-25.29,0,*43
1503997482.06,16709,19.81,74316.5,21.91,-25.35,-26.55,0,*4A
1503997483.3,16710,19.81,74318.3,21.91,-24.93,-26.17,0,*49
1503997484.57,16711,19.81,74320.8,21.91,-24.71,-25.87,0,*4E
1503997485.8,16712,19.81,74322.5,21.91,-23.79,-24.93,0,*46
1503997487.03,16713,19.81,74318.5,21.93,-23.49,-24.51,0,*48
1503997488.29,16714,19.81,74322.8,21.95,-23.33,-24.47,0,*43
1503997489.5,16715,19.81,74318.3,21.97,-22.87,-23.95,0,*46
1503997490.75,16716,19.81,74326.0,21.99,-22.97,-23.95,0,*4A
1503997492.02,16717,19.81,74320.0,21.99,-24.21,-25.35,0,*4C
1503997493.24,16718,19.81,74320.3,22.05,-23.53,-24.57,0,*42
1503997494.49,16719,19.81,74320.8,22.05,-23.53,-24.67,0,*40
1503997495.75,16720,19.81,74322.5,22.07,-23.53,-24.47,0,*4A
1503997496.97,16721,19.81,74320.0,22.05,-23.03,-24.05,0,*4A
1503997498.23,16722,19.81,74320.8,22.07,-23.95,-25.13,0,*42
1503997499.48,16723,19.81,74322.8,22.07,-23.85,-24.93,0,*4B
1503997500.74,16724,19.81,74322.0,22.11,-24.11,-25.23,0,*4B
1503997501.97,16725,19.81,74322.8,22.09,-25.61,-26.77,0,*47
1503997503.24,16726,19.81,74322.8,22.09,-24.71,-25.75,0,*45
1503997504.47,16727,19.81,74316.8,22.09,-23.95,-24.93,0,*40
1503997505.69,16728,19.81,74320.5,22.09,-23.65,-24.57,0,*48
1503997506.95,16729,19.81,74320.0,22.11,-24.11,-25.19,0,*4F
1503997508.22,16730,19.81,74320.5,22.11,-23.23,-24.11,0,*48
1503997509.45,16731,19.81,74318.5,22.11,-22.93,-23.89,0,*45
1503997510.71,16732,19.81,74320.0,22.15,-22.53,-23.49,0,*42
1503997511.99,16733,19.81,74318.5,22.15,-23.29,-24.25,0,*42
1503997513.24,16734,19.81,74318.5,22.19,-24.87,-26.07,0,*48
1503997514.45,16735,19.81,74320.0,22.17,-24.57,-25.61,0,*49
1503997515.67,16736,19.81,74322.3,22.17,-25.09,-26.17,0,*42
1503997516.92,16737,19.81,74320.5,22.17,-23.95,-25.03,0,*46
1503997518.18,16738,19.81,74322.0,22.19,-23.75,-24.71,0,*4D
1503997519.42,16739,19.81,74318.8,22.19,-24.57,-25.61,0,*4B
1503997520.67,16740,19.81,74322.0,22.19,-24.21,-25.19,0,*4B
1503997521.92,16741,19.81,74322.3,22.19,-23.29,-24.47,0,*4F
1503997523.18,16742,19.81,74322.0,22.19,-24.25,-25.23,0,*44
1503997524.44,16743,19.81,74318.0,22.21,-23.59,-24.71,0,*44
1503997525.69,16744,19.81,74320.0,22.21,-22.73,-23.75,0,*49
1503997526.91,16745,19.81,74320.5,22.27,-24.31,-25.49,0,*47
1503997528.17,16746,19.81,74320.3,22.25,-25.13,-26.33,0,*49
1503997529.42,16747,19.81,74320.0,22.25,-25.29,-26.45,0,*40
1503997530.7,16748,19.81,74318.0,22.25,-26.13,-27.39,0,*4F
1503997531.93,16749,19.81,74318.3,22.21,-25.49,-26.65,0,*4E
1503997533.18,16750,19.81,74318.5,22.21,-25.29,-26.39,0,*49
1503997534.44,16751,19.81,74322.0,22.21,-24.97,-26.13,0,*44
1503997535.7,16752,19.81,74322.3,22.21,-25.97,-27.03,0,*46
1503997536.93,16753,19.81,74322.0,22.21,-25.13,-26.39,0,*43
1503997538.19,16754,19.81,74322.3,22.21,-24.41,-25.39,0,*41
1503997539.46,16755,19.81,74318.8,22.21,-24.25,-25.39,0,*42
1503997540.74,16756,19.81,74316.5,22.21,-23.53,-24.67,0,*4D
1503997542.01,16757,19.81,74324.3,22.25,-23.53,-24.67,0,*48
1503997543.29,16758,19.81,74322.5,22.21,-25.03,-26.17,0,*45
1503997544.56,16759,19.81,74320.5,22.25,-24.51,-25.75,0,*41
1503997545.81,16760,19.81,74322.3,22.21,-26.29,-27.55,0,*42
1503997547.09,16761,19.81,74322.0,22.25,-25.29,-26.33,0,*45
1503997548.35,16762,19.81,74320.8,22.21,-25.39,-26.33,0,*43
1503997549.6,16763,19.81,74320.0,22.21,-26.55,-27.55,0,*4A
1503997550.85,16764,19.81,74322.0,22.19,-24.21,-25.23,0,*44
1503997552.08,16765,19.81,74320.5,22.19,-23.59,-24.57,0,*4F
1503997553.37,16766,19.81,74326.3,22.21,-24.41,-25.55,0,*4A
1503997554.63,16767,19.81,74322.5,22.21,-26.03,-27.19,0,*45
1503997555.88,16768,19.81,74322.3,22.21,-25.87,-27.19,0,*45
1503997557.14,16769,19.81,74320.5,22.19,-24.25,-25.35,0,*4A
1503997558.39,16770,19.81,74322.0,22.21,-23.23,-24.35,0,*49
1503997559.68,16771,19.81,74322.5,22.25,-23.19,-24.21,0,*40
1503997560.93,16772,19.81,74320.5,22.21,-23.43,-24.41,0,*4E
1503997562.17,16773,19.81,74320.0,22.27,-24.11,-25.23,0,*4C
1503997563.39,16774,19.81,74322.0,22.29,-23.79,-24.93,0,*46
1503997564.63,16775,19.81,74322.5,22.29,-25.03,-26.23,0,*45
1503997565.9,16776,19.81,74318.3,22.27,-24.21,-25.29,0,*40
1503997567.14,16777,19.81,74320.5,22.29,-24.15,-25.19,0,*4B
1503997568.39,16778,19.81,74322.5,22.29,-25.29,-26.39,0,*4B
1503997569.65,16779,19.81,74320.5,22.29,-24.47,-25.55,0,*4A
1503997570.87,16780,19.81,74320.5,22.29,-25.09,-26.45,0,*45
1503997572.08,16781,19.81,74324.5,22.27,-26.65,-27.93,0,*49
1503997573.36,16782,19.81,74322.3,22.25,-26.29,-27.39,0,*40
1503997574.62,16783,19.81,74320.5,22.25,-25.61,-26.81,0,*4C
1503997575.9,16784,19.81,74320.5,22.25,-24.83,-26.13,0,*4D
1503997577.17,16785,19.81,74318.5,22.21,-26.33,-27.67,0,*43
1503997578.4,16786,19.81,74322.5,22.25,-26.23,-27.29,0,*4F
1503997579.62,16787,19.81,74318.3,22.25,-25.35,-26.49,0,*4D
1503997580.87,16788,19.81,74318.3,22.21,-25.39,-26.81,0,*4E
1503997582.13,16789,19.81,74320.8,22.21,-25.81,-27.03,0,*47
1503997583.41,16790,19.81,74320.3,22.21,-28.05,-29.35,0,*45
1503997584.63,16791,19.81,74320.0,22.19,-25.09,-26.23,0,*46
1503997585.84,16792,19.81,74322.8,22.17,-24.31,-25.23,0,*42
1503997587.08,16793,19.81,74318.5,22.19,-24.31,-25.39,0,*46
1503997588.31,16794,19.81,74320.3,22.25,-24.31,-25.35,0,*42
1503997589.59,16795,19.81,74320.5,22.21,-23.53,-24.67,0,*42
1503997590.87,16796,19.81,74322.5,22.25,-24.11,-25.29,0,*4F
1503997592.15,16797,19.81,74322.0,22.25,-23.65,-24.67,0,*41
1503997593.36,16798,19.81,74320.0,22.27,-23.09,-24.05,0,*42
1503997594.55,16799,19.81,74318.0,22.31,-22.41,-23.39,0,*41
1503997595.8,16800,19.81,74316.3,22.31,-23.03,-23.99,0,*43
1503997597.03,16801,19.81,74318.3,22.33,-25.65,-26.87,0,*4C
1503997598.26,16802,19.81,74320.8,22.31,-27.13,-28.21,0,*4C
1503997599.48,16803,19.81,74316.8,22.29,-26.61,-27.71,0,*4A
1503997600.71,16804,19.81,74316.0,22.27,-25.09,-26.29,0,*42
1503997601.96,16805,19.81,74320.8,22.29,-23.29,-24.31,0,*42
1503997603.19,16806,19.81,74318.5,22.29,-23.43,-24.31,0,*4D
1503997604.45,16807,19.81,74318.0,22.33,-23.75,-24.71,0,*46
1503997605.72,16808,19.81,74320.3,22.33,-23.03,-23.99,0,*49
1503997606.93,16809,19.81,74320.8,22.35,-22.83,-23.79,0,*49
1503997608.15,16810,19.81,74316.0,22.35,-23.95,-24.93,0,*44
1503997609.38,16811,19.81,74318.5,22.35,-26.61,-27.83,0,*49
1503997610.58,16812,19.81,74320.0,22.35,-25.65,-26.65,0,*44
1503997611.78,16813,19.81,74320.3,22.35,-24.97,-26.07,0,*4D
1503997613.01,16814,19.81,74320.5,22.35,-23.33,-24.31,0,*44
1503997614.29,16815,19.81,74320.8,22.37,-24.11,-25.03,0,*40
1503997615.56,16816,19.88,74320.0,22.37,-25.29,-26.55,0,*49
1503997616.81,16817,19.88,74320.5,22.35,-26.33,-27.45,0,*42
1503997618.04,16818,19.81,74320.8,22.37,-23.59,-24.61,0,*43
1503997619.29,16819,19.81,74316.0,22.35,-23.03,-23.99,0,*4F
1503997620.52,16820,19.88,74322.8,22.37,-23.79,-24.77,0,*4D
1503997621.74,16821,19.81,74320.8,22.39,-23.29,-24.35,0,*41
1503997623.0,16822,19.81,74320.3,22.41,-24.71,-25.87,0,*4F
1503997624.23,16823,19.81,74318.0,22.39,-27.51,-28.75,0,*40
1503997625.46,16824,19.81,74316.3,22.35,-27.77,-28.91,0,*45
1503997626.71,16825,19.81,74320.8,22.35,-26.77,-27.83,0,*49
1503997627.9,16826,19.81,74320.5,22.35,-24.93,-25.91,0,*43
1503997629.13,16827,19.81,74316.8,22.37,-23.59,-24.77,0,*48
1503997630.39,16828,19.81,74322.5,22.35,-25.97,-27.35,0,*44
1503997631.6,16829,19.81,74318.5,22.35,-25.49,-26.65,0,*42
1503997632.82,16830,19.81,74320.0,22.35,-25.13,-26.17,0,*40
1503997634.06,16831,19.81,74320.5,22.35,-26.07,-27.35,0,*46
1503997635.31,16832,19.81,74318.8,22.35,-25.75,-26.93,0,*4E
1503997636.57,16833,19.81,74322.3,22.31,-25.71,-26.81,0,*4C
1503997637.77,16834,19.81,74322.8,22.31,-25.65,-26.87,0,*48
1503997638.98,16835,19.81,74320.0,22.31,-26.03,-27.29,0,*4F
1503997640.24,16836,19.81,74320.3,22.33,-26.33,-27.51,0,*42
1503997641.44,16837,19.81,74322.5,22.31,-26.23,-27.67,0,*45
1503997642.69,16838,19.81,74320.5,22.29,-26.55,-27.55,0,*43
1503997643.94,16839,19.81,74322.3,22.29,-25.75,-27.07,0,*44
1503997645.18,16840,19.81,74318.5,22.29,-25.29,-26.39,0,*4F
1503997646.46,16841,19.81,74322.5,22.29,-24.15,-25.29,0,*42
1503997647.71,16842,19.81,74320.8,22.29,-25.75,-26.87,0,*41
1503997648.96,16843,19.81,74318.5,22.29,-25.55,-26.61,0,*4A
1503997650.17,16844,19.81,74322.3,22.29,-24.93,-26.07,0,*46
1503997651.45,16845,19.88,74322.3,22.29,-25.71,-26.77,0,*4D
1503997652.68,16846,19.81,74322.3,22.27,-25.91,-27.23,0,*4E
1503997653.93,16847,19.81,74322.0,22.27,-28.47,-30.01,0,*4F
1503997655.18,16848,19.88,74322.3,22.25,-28.47,-29.67,0,*4A
1503997656.46,16849,19.88,74320.0,22.21,-27.45,-28.75,0,*40
1503997657.71,16850,19.88,74320.3,22.21,-27.19,-28.53,0,*45
1503997658.98,16851,19.81,74320.0,22.19,-27.39,-28.79,0,*45
1503997660.24,16852,19.88,74322.5,22.17,-29.39,-30.77,0,*41
1503997661.48,16853,19.81,74322.5,22.13,-27.61,-28.85,0,*43
1503997662.73,16854,19.88,74322.5,22.13,-27.61,-28.91,0,*41
1503997663.96,16855,19.81,74322.5,22.13,-27.13,-28.63,0,*48
1503997665.18,16856,19.88,74324.5,22.09,-27.71,-29.13,0,*42
1503997666.38,16857,19.88,74320.5,22.09,-27.77,-28.97,0,*48
1503997667.58,16858,19.88,74322.8,22.09,-27.93,-29.23,0,*43
1503997668.83,16859,19.88,74322.5,22.07,-28.25,-29.61,0,*48
1503997670.04,16860,19.88,74324.8,22.05,-28.37,-29.57,0,*46
1503997671.31,16861,19.81,74322.0,21.99,-27.19,-28.25,0,*46
1503997672.57,16862,19.81,74320.3,22.03,-26.61,-27.99,0,*43
1503997673.86,16863,19.88,74320.8,22.03,-28.63,-29.89,0,*41
1503997675.09,16864,19.81,74322.5,21.97,-27.77,-29.01,0,*42
1503997676.35,16865,19.81,74322.8,21.99,-26.33,-27.51,0,*47
1503997677.61,16866,19.88,74324.0,21.97,-26.77,-27.99,0,*4E
1503997678.86,16867,19.81,74322.5,21.97,-26.55,-27.61,0,*48
1503997680.14,16868,19.88,74320.8,21.99,-25.03,-26.17,0,*49
1503997681.39,16869,19.81,74316.0,21.99,-25.87,-27.19,0,*4B
1503997682.64,16870,19.88,74318.3,21.99,-25.91,-27.23,0,*4D
1503997683.91,16871,19.88,74322.3,21.99,-26.03,-27.23,0,*44
1503997685.14,16872,19.88,74318.8,21.99,-25.65,-26.87,0,*4B
1503997686.39,16873,19.88,74318.8,22.03,-25.29,-26.49,0,*40
1503997687.67,16874,19.88,74318.5,22.03,-27.99,-29.35,0,*4A
1503997688.9,16875,19.88,74316.5,21.97,-28.43,-29.83,0,*40
1503997690.12,16876,19.88,74320.0,21.97,-27.55,-28.63,0,*44
1503997691.36,16877,19.88,74322.5,21.97,-25.97,-27.29,0,*48
1503997692.62,16878,19.88,74318.8,21.95,-28.21,-29.45,0,*41
1503997693.9,16879,19.81,74316.5,21.95,-27.83,-29.01,0,*47
1503997695.18,16880,19.88,74318.5,21.95,-26.13,-27.19,0,*4E
1503997696.44,16881,19.88,74316.5,21.93,-26.77,-27.99,0,*43
1503997697.69,16882,19.88,74318.8,21.93,-25.81,-26.97,0,*45